TimeCST,TemperatureF,Dew PointF,Humidity,Sea Level PressureIn,VisibilityMPH,Wind Direction,Wind SpeedMPH,Gust SpeedMPH,PrecipitationIn,Events,Conditions,WindDirDegrees,DateUTC
12:02 AM,60.8,59.0,94,30.00,3.0,SSE,4.6,-,N/A,,Clear,160,2013-12-02 06:02:00
12:24 AM,60.8,60.8,100,30.00,1.8,South,3.5,-,N/A,,Clear,180,2013-12-02 06:24:00
12:45 AM,60.8,60.8,100,29.99,0.5,South,3.5,-,N/A,Fog,Fog,180,2013-12-02 06:45:00
12:53 AM,61.0,59.0,93,29.98,0.5,South,3.5,-,N/A,Fog,Fog,180,2013-12-02 06:53:00
1:10 AM,62.6,60.8,94,29.98,1.5,South,3.5,-,N/A,,Clear,190,2013-12-02 07:10:00
1:14 AM,62.6,60.8,94,29.98,3.0,South,4.6,-,N/A,,Clear,190,2013-12-02 07:14:00
1:53 AM,62.1,61.0,96,29.96,3.0,South,3.5,-,N/A,,Clear,190,2013-12-02 07:53:00
1:57 AM,62.6,60.8,94,29.97,1.8,South,3.5,-,N/A,,Clear,190,2013-12-02 07:57:00
2:29 AM,60.8,59.0,94,29.96,0.8,South,3.5,-,N/A,,Clear,180,2013-12-02 08:29:00
2:42 AM,60.8,59.0,94,29.95,0.8,South,4.6,-,N/A,,Mist,190,2013-12-02 08:42:00
2:53 AM,60.1,59.0,96,29.94,0.8,South,5.8,-,N/A,,Mist,190,2013-12-02 08:53:00
3:19 AM,60.8,59.0,94,29.93,1.2,SSW,4.6,-,N/A,,Scattered Clouds,200,2013-12-02 09:19:00
3:27 AM,60.8,60.8,100,29.93,3.0,South,5.8,-,N/A,,Partly Cloudy,190,2013-12-02 09:27:00
3:53 AM,63.0,62.1,97,29.93,7.0,South,5.8,-,N/A,,Partly Cloudy,190,2013-12-02 09:53:00
4:04 AM,62.6,60.8,94,29.92,2.5,South,5.8,-,N/A,,Mostly Cloudy,180,2013-12-02 10:04:00
4:23 AM,62.6,60.8,94,29.92,4.0,South,4.6,-,N/A,,Overcast,190,2013-12-02 10:23:00
4:28 AM,62.6,60.8,94,29.92,1.8,South,4.6,-,N/A,,Overcast,180,2013-12-02 10:28:00
4:38 AM,60.8,60.8,100,29.91,0.8,South,5.8,-,N/A,,Mist,180,2013-12-02 10:38:00
4:53 AM,61.0,60.1,97,29.90,0.8,South,5.8,-,N/A,,Mist,180,2013-12-02 10:53:00
5:02 AM,62.6,60.8,94,29.90,1.8,South,8.1,-,N/A,,Overcast,190,2013-12-02 11:02:00
5:06 AM,62.6,60.8,94,29.90,3.0,South,6.9,-,N/A,,Mostly Cloudy,190,2013-12-02 11:06:00
5:21 AM,62.6,60.8,94,29.90,10.0,SSW,6.9,-,N/A,,Scattered Clouds,200,2013-12-02 11:21:00
5:53 AM,62.1,61.0,96,29.91,10.0,SSW,5.8,-,N/A,,Clear,200,2013-12-02 11:53:00
6:22 AM,62.6,60.8,94,29.91,1.8,South,4.6,-,N/A,,Partly Cloudy,190,2013-12-02 12:22:00
6:36 AM,60.8,59.0,94,29.91,2.5,South,5.8,-,N/A,,Partly Cloudy,180,2013-12-02 12:36:00
6:44 AM,60.8,59.0,94,29.91,5.0,South,4.6,-,N/A,,Partly Cloudy,180,2013-12-02 12:44:00
6:53 AM,61.0,59.0,93,29.91,7.0,South,8.1,-,N/A,,Clear,190,2013-12-02 12:53:00
7:53 AM,63.0,62.1,97,29.92,10.0,South,4.6,-,N/A,,Clear,190,2013-12-02 13:53:00
8:53 AM,66.9,64.0,90,29.93,10.0,South,6.9,-,N/A,,Clear,190,2013-12-02 14:53:00
9:53 AM,72.0,64.9,78,29.93,10.0,SSW,9.2,-,N/A,,Clear,210,2013-12-02 15:53:00
10:53 AM,75.9,64.0,67,29.93,10.0,South,13.8,-,N/A,,Scattered Clouds,190,2013-12-02 16:53:00
11:53 AM,79.0,63.0,58,29.89,10.0,South,15.0,20.7,N/A,,Clear,190,2013-12-02 17:53:00
12:53 PM,80.1,61.0,52,29.84,10.0,South,16.1,23.0,N/A,,Clear,180,2013-12-02 18:53:00
1:53 PM,81.0,60.1,49,29.81,10.0,South,16.1,-,N/A,,Clear,190,2013-12-02 19:53:00
2:53 PM,80.1,61.0,52,29.79,10.0,South,16.1,-,N/A,,Clear,170,2013-12-02 20:53:00
3:53 PM,78.1,60.1,54,29.78,10.0,South,17.3,23.0,N/A,,Clear,180,2013-12-02 21:53:00
4:53 PM,75.0,62.1,64,29.79,10.0,South,13.8,-,N/A,,Clear,170,2013-12-02 22:53:00
5:53 PM,72.0,63.0,73,29.78,10.0,South,15.0,-,N/A,,Clear,170,2013-12-02 23:53:00
6:53 PM,70.0,63.0,78,29.80,10.0,South,8.1,-,N/A,,Clear,180,2013-12-03 00:53:00
7:53 PM,70.0,64.0,81,29.79,10.0,South,12.7,-,N/A,,Clear,180,2013-12-03 01:53:00
8:53 PM,70.0,64.9,84,29.79,10.0,South,16.1,-,N/A,,Clear,190,2013-12-03 02:53:00
9:53 PM,69.1,64.9,87,29.80,10.0,South,13.8,-,N/A,,Clear,190,2013-12-03 03:53:00
10:53 PM,69.1,64.0,84,29.80,10.0,South,8.1,-,N/A,,Clear,190,2013-12-03 04:53:00
11:53 PM,68.0,64.9,90,29.78,10.0,South,10.4,-,N/A,,Clear,190,2013-12-03 05:53:00